User: anonymous   Login
Location: Adamstown South Public School
(32.9318°S, 151.7012°E)
Time: 03:15:56
(UTC+00:00)
Language:

Cosmos 494 Rocket - Orbit

View from above orbital plane
View from above orbital plane
View from above satellite
View from above satellite

Ground track
Ground track

The orbit data is extracted from the following two-line orbital elements,

1  6061U 72043B   20221.70040932 -.00000004 +00000-0 +69638-5 0  9993
2  6061 074.0549 218.7775 0018840 058.8013 301.4986 14.40584290523443
Epoch (UTC): 08 August 2020 16:48:35
Eccentricity: 0.0018840
inclination: 74.0549°
perigee height: 743 km
apogee height: 770 km
right ascension of ascending node: 218.7775°
argument of perigee: 58.8013°
revolutions per day: 14.40584290
mean anomaly at epoch: 301.4986°
orbit number at epoch: 52344

The dashed part of the orbit path shows where the satellite is in the earth's shadow,  

DLR